sat.trackr.live / text

‹ back to catalog

2026-027C

NORAD 67748 · 2026-027C

PAYLOAD ACTIVE UNKNOWN

§ Identity

Operator
Country
PRC
Launch date
2026-02-12
Launch site
SCSLA
Launch vehicle
Mass (kg)
RCS (m²)

External: N2YO · Heavens-Above · Gunter

§ Orbital elements

Epoch: 2026-05-25T02:04:14.910816Z

Period
94.82 min
Inclination
97.5040°
Eccentricity
0.0009315
Mean motion
15.18594516 rev/d
Perigee alt
503.7 km
Apogee alt
516.5 km
Semi-major
6,888.2 km
B*
1.9690e-4
RAAN
273.4356°
Arg perigee
303.8322°
Mean anomaly
56.2025°
Rev number
1,545

§ Raw data

2026-027C1 67748U 26027C   26145.08628369  .00004007  00000+0  19690-3 0  99972 67748  97.5040 273.4356 0009315 303.8322  56.2025 15.18594516 15458

JSON: /api/v1/satellites/67748 · /tle

For live sub-satellite position, see the globe view (requires WebGL).

§ Visibility from observer

Set your observer location to see the next 7 days of passes ≥ 10°. The values pass through the URL so the page stays shareable.

No JS? Fill the form by hand. The geolocation button needs JavaScript.

§ Radio — SatNOGS DB

ModeDescriptionDownlinkUplink
BPSK S-band telemetry 2.242 GHz

1 transmitter · refreshed weekly from db.satnogs.org